�N����,����,�~����,�C��,���x,�C��,����,���ϕ���,�ő�u�ԕ���,�ő厞����,���˗�,�I�_���x,�n�����x,�ő啗���N��,DTYPE
"17/07/17","00:10",0.0,23.9,93.9,1005.5,309.7,0.7,1.2,357.0,0.00,22.9,25.9,"00:02:48",1
"17/07/17","00:20",0.0,23.9,94.0,1005.7,283.6,0.5,1.1,317.3,0.00,22.9,26.1,"00:17:44",1
"17/07/17","00:30",0.0,23.8,94.1,1005.5,276.9,0.3,0.6,302.7,0.00,22.8,25.9,"00:21:20",1
"17/07/17","00:40",0.0,23.8,94.3,1005.2,303.6,0.8,1.7,326.5,0.00,22.9,25.9,"00:39:20",1
"17/07/17","00:50",0.0,23.7,94.3,1005.2,309.2,0.8,1.3,309.9,0.00,22.8,25.9,"00:41:44",1
"17/07/17","01:00",0.0,23.7,94.4,1005.0,309.2,0.8,1.6,322.5,0.00,22.8,25.7,"00:52:48",1
"17/07/17","01:10",0.0,23.6,94.6,1005.2,306.6,0.7,1.3,321.4,0.00,22.7,25.8,"01:05:44",1
"17/07/17","01:20",0.0,23.5,94.6,1005.5,297.4,0.2,0.9,311.6,0.00,22.6,25.7,"01:13:28",1
"17/07/17","01:30",0.0,23.5,94.8,1005.2,318.8,1.2,1.7,331.1,0.00,22.7,25.7,"01:28:32",1
"17/07/17","01:40",0.0,23.5,94.9,1005.2,309.8,1.1,1.8,317.6,0.00,22.7,25.8,"01:38:16",1
"17/07/17","01:50",0.0,23.5,95.0,1005.2,294.2,0.7,1.3,317.7,0.00,22.7,25.5,"01:48:16",1
"17/07/17","02:00",0.0,23.6,95.1,1005.5,331.4,1.0,1.4,3.1,0.00,22.8,25.7,"01:52:48",1
"17/07/17","02:10",0.0,23.6,95.1,1005.7,325.1,1.1,1.7,331.1,0.00,22.8,25.7,"02:05:32",1
"17/07/17","02:20",0.0,23.6,95.4,1005.7,314.1,1.0,1.3,340.0,0.00,22.9,25.5,"02:18:48",1
"17/07/17","02:30",0.0,23.7,95.3,1005.5,332.3,1.2,2.5,349.0,0.00,22.9,25.6,"02:29:20",1
"17/07/17","02:40",0.0,23.9,95.3,1005.7,334.5,1.7,3.7,329.5,0.00,23.1,25.7,"02:34:00",1
"17/07/17","02:50",0.0,24.0,95.1,1005.5,340.2,1.7,2.8,336.6,0.00,23.2,25.7,"02:41:12",1
"17/07/17","03:00",0.0,24.1,94.9,1005.7,328.2,1.2,2.2,346.5,0.00,23.3,25.4,"02:50:40",1
"17/07/17","03:10",0.0,24.1,94.9,1005.5,323.6,1.0,1.7,335.6,0.00,23.3,25.6,"03:01:44",1
"17/07/17","03:20",0.0,24.1,94.7,1005.2,320.2,0.8,1.7,350.2,0.00,23.2,25.6,"03:19:36",1
"17/07/17","03:30",0.0,24.0,94.7,1005.5,295.5,0.7,1.4,324.4,0.00,23.1,25.4,"03:21:20",1
"17/07/17","03:40",0.0,24.1,94.7,1005.7,309.5,1.0,1.6,330.1,0.00,23.2,25.5,"03:35:20",1
"17/07/17","03:50",0.0,24.1,94.6,1005.7,338.2,0.8,1.7,343.5,0.00,23.2,25.6,"03:46:32",1
"17/07/17","04:00",0.0,24.0,94.5,1006.0,332.3,0.7,1.3,345.5,0.00,23.1,25.5,"03:58:08",1
"17/07/17","04:10",0.0,23.9,94.6,1006.0,329.7,1.2,1.9,331.5,0.00,23.0,25.3,"04:09:36",1
"17/07/17","04:20",0.0,23.9,94.5,1006.0,312.3,1.3,2.9,337.8,0.00,23.0,25.6,"04:14:56",1
"17/07/17","04:30",0.0,23.8,94.5,1006.0,304.0,0.7,1.6,320.0,0.00,22.9,25.3,"04:23:44",1
"17/07/17","04:40",0.0,23.8,94.5,1006.2,307.7,0.5,1.0,274.7,0.00,22.9,25.2,"04:39:52",1
"17/07/17","04:50",0.0,23.6,94.6,1005.7,302.7,1.0,1.3,322.1,0.00,22.7,25.3,"04:46:08",1
"17/07/17","05:00",0.0,23.5,94.7,1006.0,282.1,1.0,1.4,311.9,0.00,22.6,25.3,"04:52:40",1
"17/07/17","05:10",0.0,23.5,94.9,1006.0,289.0,1.1,2.0,280.1,0.00,22.7,25.3,"05:06:40",1
"17/07/17","05:20",0.0,23.6,94.9,1006.2,312.8,1.3,2.4,322.3,0.00,22.8,25.4,"05:19:36",1
"17/07/17","05:30",0.0,23.6,95.0,1006.0,331.0,1.6,2.5,331.4,0.00,22.8,25.2,"05:23:36",1
"17/07/17","05:40",0.0,23.8,95.0,1006.2,334.4,1.5,2.6,319.0,0.00,23.0,25.2,"05:39:04",1
"17/07/17","05:50",0.0,24.1,94.7,1006.2,330.9,2.0,4.1,327.0,0.00,23.2,25.2,"05:45:20",1
"17/07/17","06:00",0.0,24.2,94.4,1006.0,338.8,2.3,4.1,349.9,0.00,23.3,25.3,"05:52:48",1
"17/07/17","06:10",0.0,24.2,94.1,1006.4,346.8,1.6,2.8,344.7,0.00,23.2,25.1,"06:00:56",1
"17/07/17","06:20",0.0,24.4,93.8,1006.2,345.4,1.5,2.5,349.6,0.00,23.4,25.3,"06:10:16",1
"17/07/17","06:30",0.0,24.5,93.5,1006.2,334.8,2.3,3.9,330.4,0.01,23.4,25.3,"06:23:20",1
"17/07/17","06:40",0.0,24.6,93.3,1006.4,336.0,2.0,3.5,335.8,0.02,23.5,25.4,"06:30:08",1
"17/07/17","06:50",0.0,24.9,92.9,1006.4,329.9,1.3,2.5,340.5,0.04,23.7,25.2,"06:40:08",1
"17/07/17","07:00",0.0,25.1,92.3,1006.0,348.9,1.3,2.0,341.1,0.05,23.8,25.3,"06:50:16",1
"17/07/17","07:10",0.0,25.5,92.1,1006.0,336.6,1.0,1.9,344.7,0.06,24.2,25.4,"07:07:28",1
"17/07/17","07:20",0.0,25.7,91.5,1006.4,326.0,0.8,1.8,339.9,0.06,24.3,25.4,"07:16:24",1
"17/07/17","07:30",0.0,26.2,90.0,1006.2,290.4,0.3,1.1,341.1,0.09,24.5,25.2,"07:28:32",1
"17/07/17","07:40",0.0,27.0,86.3,1006.2,357.4,0.3,1.1,341.0,0.13,24.6,25.6,"07:39:36",1
"17/07/17","07:50",0.0,27.2,85.6,1006.4,0.3,0.5,1.7,348.5,0.14,24.6,25.4,"07:40:16",1
"17/07/17","08:00",0.0,27.4,84.1,1006.4,52.6,0.3,1.0,10.8,0.09,24.5,25.5,"07:55:04",1
"17/07/17","08:10",0.0,26.9,84.8,1006.4,2.8,0.7,1.7,32.9,0.10,24.2,25.5,"08:00:16",1
"17/07/17","08:20",0.0,27.3,83.9,1006.4,347.4,0.5,1.3,0.0,0.13,24.4,25.7,"08:12:40",1
"17/07/17","08:30",0.0,27.4,84.8,1006.4,357.7,0.5,1.4,351.3,0.10,24.7,25.7,"08:23:20",1
"17/07/17","08:40",0.0,27.2,84.1,1006.2,352.0,0.8,1.9,342.4,0.08,24.3,25.7,"08:36:00",1
"17/07/17","08:50",0.0,27.3,83.4,1006.0,34.9,0.6,1.6,47.4,0.12,24.3,25.7,"08:46:08",1
"17/07/17","09:00",0.0,27.9,83.5,1005.7,131.3,0.2,0.8,352.8,0.13,24.9,25.7,"08:52:24",1
"17/07/17","09:10",0.0,28.3,81.6,1005.0,151.9,0.3,0.8,139.8,0.15,24.9,25.9,"09:06:48",1
"17/07/17","09:20",0.0,28.3,81.3,1005.7,166.1,0.2,0.9,139.5,0.13,24.8,25.9,"09:16:08",1
"17/07/17","09:30",0.0,28.5,79.7,1005.5,129.7,0.3,1.4,131.6,0.15,24.7,25.8,"09:24:24",1
"17/07/17","09:40",0.0,28.8,78.2,1005.7,337.3,0.2,0.8,14.5,0.14,24.7,26.3,"09:35:12",1
"17/07/17","09:50",0.0,29.0,77.2,1006.0,8.4,0.3,1.3,7.5,0.16,24.6,26.2,"09:49:12",1
"17/07/17","10:00",0.0,29.0,78.8,1006.0,123.8,0.6,1.8,13.3,0.11,25.0,26.3,"09:52:08",1
"17/07/17","10:10",0.0,29.0,78.2,1005.5,87.9,0.5,1.6,4.3,0.05,24.9,26.4,"10:07:52",1
"17/07/17","10:20",0.0,28.5,79.0,1005.5,287.6,0.6,1.8,359.2,0.08,24.5,26.5,"10:15:52",1
"17/07/17","10:30",0.0,28.6,78.9,1005.0,288.1,0.5,2.0,304.1,0.09,24.6,26.1,"10:27:20",1
"17/07/17","10:40",0.0,28.6,78.6,1004.8,281.6,0.6,1.7,258.2,0.11,24.6,26.4,"10:35:28",1
"17/07/17","10:50",0.0,29.3,78.0,1004.8,297.2,0.7,1.9,329.6,0.17,25.1,26.4,"10:47:36",1
"17/07/17","11:00",0.0,29.5,75.7,1005.2,278.1,0.8,2.0,255.5,0.24,24.8,26.4,"10:59:52",1
"17/07/17","11:10",0.0,29.9,75.1,1005.2,291.5,0.8,2.0,337.6,0.26,25.0,26.6,"11:05:28",1
"17/07/17","11:20",0.0,30.2,73.3,1005.2,269.5,1.1,2.6,232.6,0.30,24.9,26.7,"11:19:36",1
"17/07/17","11:30",0.0,30.6,73.3,1005.7,252.0,1.1,2.8,220.0,0.33,25.3,26.7,"11:29:52",1
"17/07/17","11:40",0.0,30.6,72.4,1005.7,220.7,1.7,3.7,221.4,0.36,25.1,26.9,"11:34:56",1
"17/07/17","11:50",0.0,30.7,72.6,1006.0,216.5,1.7,3.4,230.4,0.32,25.2,27.1,"11:43:44",1
"17/07/17","12:00",0.0,30.8,70.9,1005.7,221.5,1.7,4.0,222.4,0.34,24.9,27.4,"11:53:20",1
"17/07/17","12:10",0.0,32.4,65.2,1006.4,288.3,0.7,2.0,332.9,0.49,25.1,27.3,"12:08:48",1
"17/07/17","12:20",0.0,32.6,65.4,1006.4,285.1,1.0,2.2,349.1,0.57,25.3,27.3,"12:10:40",1
"17/07/17","12:30",0.0,32.3,61.9,1006.7,258.6,1.3,3.4,222.7,0.48,24.1,27.6,"12:20:32",1
"17/07/17","12:40",0.0,31.8,64.1,1006.7,232.4,1.6,3.5,353.0,0.35,24.2,27.8,"12:39:52",1
"17/07/17","12:50",0.0,32.3,63.4,1006.4,222.6,1.0,2.4,179.9,0.32,24.5,27.9,"12:49:04",1
"17/07/17","13:00",0.0,31.3,65.7,1006.2,240.3,1.7,4.2,219.2,0.19,24.1,28.1,"12:56:48",1
"17/07/17","13:10",0.0,30.9,68.3,1005.5,256.2,1.3,3.3,214.6,0.13,24.4,28.1,"13:08:40",1
"17/07/17","13:20",0.0,31.4,68.6,1005.2,250.4,1.2,3.1,239.5,0.25,25.0,28.1,"13:11:44",1
"17/07/17","13:30",0.0,32.3,68.0,1005.2,233.8,1.2,2.9,230.1,0.40,25.7,28.2,"13:25:44",1
"17/07/17","13:40",0.0,32.9,66.7,1005.5,318.7,1.3,4.3,349.2,0.57,25.9,28.1,"13:37:04",1
"17/07/17","13:50",0.0,33.3,63.0,1005.7,328.4,1.3,3.7,349.0,0.58,25.3,28.2,"13:40:16",1
"17/07/17","14:00",0.0,32.9,62.0,1006.0,216.3,2.1,4.0,220.6,0.52,24.7,28.3,"13:55:12",1
"17/07/17","14:10",0.0,33.6,61.0,1006.0,238.8,1.3,3.2,200.5,0.60,25.1,28.4,"14:02:24",1
"17/07/17","14:20",0.0,31.9,65.1,1005.7,215.9,2.1,4.0,221.0,0.23,24.6,28.5,"14:10:24",1
"17/07/17","14:30",0.0,32.9,60.3,1005.7,234.9,1.2,3.1,334.5,0.38,24.2,28.5,"14:22:32",1
"17/07/17","14:40",0.0,32.2,63.6,1005.7,314.9,1.0,3.4,337.3,0.19,24.5,28.7,"14:35:44",1
"17/07/17","14:50",0.0,31.8,64.8,1005.2,295.8,1.2,4.2,347.0,0.12,24.4,28.6,"14:41:28",1
"17/07/17","15:00",0.0,33.1,60.6,1004.8,303.1,1.2,3.9,226.2,0.30,24.5,28.6,"14:50:02",1
"17/07/17","15:10",0.0,33.4,61.0,1004.5,284.2,0.8,2.6,25.7,0.35,24.9,28.7,"15:00:02",1
"17/07/17","15:20",0.0,32.5,66.4,1004.5,357.3,1.0,2.0,347.8,0.19,25.5,28.7,"15:13:28",1
"17/07/17","15:30",0.0,33.0,63.7,1004.5,319.3,1.1,2.2,11.1,0.27,25.2,28.7,"15:24:40",1
"17/07/17","15:40",0.0,32.3,64.6,1004.3,319.1,1.3,3.7,225.1,0.18,24.8,28.9,"15:37:28",1
"17/07/17","15:50",0.0,32.4,64.3,1004.5,319.7,1.1,2.5,356.8,0.17,24.8,28.9,"15:43:28",1
"17/07/17","16:00",0.0,31.9,66.2,1004.1,241.4,1.0,2.8,215.4,0.12,24.8,28.9,"15:53:28",1
"17/07/17","16:10",0.0,31.9,66.9,1004.1,262.4,1.0,2.7,222.3,0.14,25.0,28.8,"16:09:12",1
"17/07/17","16:20",0.0,32.0,65.1,1003.8,262.3,1.0,2.8,231.6,0.15,24.7,28.7,"16:13:44",1
"17/07/17","16:30",0.0,32.0,65.8,1003.8,256.1,0.8,3.2,219.6,0.13,24.8,28.8,"16:20:48",1
"17/07/17","16:40",0.0,31.9,68.6,1003.6,341.7,1.0,2.2,30.7,0.16,25.4,29.1,"16:36:56",1
"17/07/17","16:50",0.0,31.4,69.1,1003.6,356.7,1.1,2.2,351.3,0.08,25.1,28.9,"16:44:32",1
"17/07/17","17:00",0.0,30.8,70.2,1003.4,12.5,1.3,2.7,49.1,0.02,24.8,28.9,"16:50:48",1
"17/07/17","17:10",0.0,29.9,73.7,1002.6,13.4,2.0,3.9,8.8,0.00,24.7,28.4,"17:04:08",1
"17/07/17","17:20",0.0,28.5,79.6,1002.4,14.2,1.3,3.1,52.7,0.00,24.7,28.8,"17:12:16",1
"17/07/17","17:30",0.0,28.0,82.9,1002.6,282.7,0.5,1.6,317.9,0.02,24.9,28.5,"17:22:56",1
"17/07/17","17:40",0.0,27.7,82.2,1002.4,230.3,0.5,1.6,39.1,0.02,24.4,28.6,"17:38:16",1
"17/07/17","17:50",0.0,27.9,84.4,1003.1,263.7,0.7,1.4,329.8,0.03,25.1,28.4,"17:46:56",1
"17/07/17","18:00",0.0,27.9,84.8,1003.1,266.0,0.3,1.1,326.8,0.03,25.1,28.4,"17:52:24",1
"17/07/17","18:10",0.0,28.0,86.1,1003.6,7.3,0.5,1.4,4.2,0.01,25.5,28.5,"18:06:00",1
"17/07/17","18:20",0.0,27.7,85.5,1003.6,83.5,0.5,1.1,66.4,0.00,25.1,28.2,"18:10:56",1
"17/07/17","18:30",0.0,27.4,84.6,1003.6,246.3,1.0,1.6,181.7,0.00,24.6,28.2,"18:27:36",1
"17/07/17","18:40",0.0,27.1,84.6,1003.8,149.6,0.5,1.4,178.1,0.00,24.3,28.2,"18:32:40",1
"17/07/17","18:50",0.0,27.0,85.4,1004.3,190.9,0.7,1.9,201.7,0.00,24.4,28.1,"18:46:08",1
"17/07/17","19:00",0.0,26.9,86.9,1004.1,293.6,0.5,1.1,332.4,0.00,24.6,28.1,"18:58:48",1
"17/07/17","19:10",0.0,26.7,87.8,1003.8,339.5,1.0,1.8,341.7,0.00,24.5,27.8,"19:03:04",1
"17/07/17","19:20",0.0,26.6,89.1,1004.1,349.9,1.0,1.7,357.5,0.00,24.7,27.8,"19:15:12",1
"17/07/17","19:30",0.0,26.5,89.9,1004.3,327.2,0.8,1.6,331.1,0.00,24.7,28.0,"19:21:36",1
"17/07/17","19:40",0.0,26.4,90.2,1004.5,345.4,0.7,1.6,339.0,0.00,24.7,27.7,"19:39:04",1
"17/07/17","19:50",0.0,26.3,90.4,1004.5,352.8,0.8,1.7,11.9,0.00,24.6,27.5,"19:43:20",1
"17/07/17","20:00",0.0,26.0,90.1,1004.1,305.1,0.8,2.0,343.7,0.00,24.3,27.5,"19:56:00",1
"17/07/17","20:10",0.0,25.9,90.5,1004.5,287.5,0.5,0.9,325.1,0.00,24.3,27.5,"20:03:04",1
"17/07/17","20:20",0.0,25.8,91.2,1004.3,343.1,0.6,1.3,322.3,0.00,24.3,27.4,"20:12:08",1
"17/07/17","20:30",0.0,25.7,91.4,1004.1,288.9,0.6,1.4,315.0,0.00,24.2,27.3,"20:27:04",1
"17/07/17","20:40",0.0,25.6,91.8,1004.8,254.6,0.2,0.6,228.8,0.00,24.2,27.2,"20:37:12",1
"17/07/17","20:50",0.0,25.4,92.0,1004.5,249.8,0.3,0.9,258.4,0.00,24.0,27.1,"20:49:22",1
"17/07/17","21:00",0.0,25.3,92.1,1004.5,239.0,0.3,0.9,268.4,0.00,24.0,27.1,"20:52:04",1
"17/07/17","21:10",0.0,25.2,92.2,1005.0,311.0,1.0,1.7,340.1,0.00,23.9,27.2,"21:08:14",1
"17/07/17","21:20",0.0,25.1,92.5,1004.8,261.0,0.6,1.2,329.3,0.00,23.8,26.8,"21:10:08",1
"17/07/17","21:30",0.0,25.1,92.8,1005.0,339.3,1.0,1.9,350.8,0.00,23.9,26.9,"21:28:16",1
"17/07/17","21:40",0.0,25.1,92.8,1005.2,343.0,1.1,2.4,341.9,0.00,23.9,27.0,"21:38:40",1
"17/07/17","21:50",0.0,25.2,92.9,1005.5,334.0,1.3,2.2,339.0,0.00,24.0,26.8,"21:44:40",1
"17/07/17","22:00",0.0,25.2,92.7,1005.0,316.1,1.1,2.1,334.6,0.00,24.0,26.7,"21:52:00",1
"17/07/17","22:10",0.0,25.2,92.9,1005.0,325.2,1.2,3.2,327.4,0.00,24.0,26.7,"22:06:16",1
"17/07/17","22:20",0.0,25.2,92.9,1004.8,296.3,0.6,2.0,335.0,0.00,24.0,26.6,"22:11:04",1
"17/07/17","22:30",0.0,25.2,92.8,1004.8,269.8,0.5,1.2,268.5,0.00,24.0,26.8,"22:24:32",1
"17/07/17","22:40",0.0,25.2,92.9,1005.0,319.1,0.6,1.8,325.7,0.00,24.0,26.6,"22:33:52",1
"17/07/17","22:50",0.0,25.3,92.8,1004.5,332.5,0.7,1.9,344.8,0.00,24.1,26.6,"22:43:36",1
"17/07/17","23:00",0.0,25.3,92.9,1005.0,282.7,0.8,2.5,338.7,0.00,24.1,26.6,"22:58:48",1
"17/07/17","23:10",0.0,25.2,92.9,1005.2,305.8,1.2,3.1,343.8,0.00,24.0,26.7,"23:01:04",1
"17/07/17","23:20",0.0,24.9,92.8,1004.8,340.2,1.8,3.7,340.6,0.00,23.7,26.6,"23:13:52",1
"17/07/17","23:30",0.0,24.8,93.1,1004.5,332.9,0.7,2.5,340.3,0.00,23.6,26.3,"23:26:00",1
"17/07/17","23:40",0.0,24.7,93.3,1004.5,329.7,0.6,1.9,343.9,0.00,23.6,26.4,"23:32:16",1
"17/07/17","23:50",0.0,24.7,93.5,1004.1,280.5,0.8,1.4,347.5,0.00,23.6,26.4,"23:42:40",1
"17/07/17","24:00",0.0,24.7,93.6,1004.8,326.0,1.0,2.1,340.0,0.00,23.6,26.3,"23:52:16",1
